Wind_Speed
10 11 13 17 22 25 24 22 23 21 19 18 19 19 17 17 17 17 18 18 18 18 17 15 16 15 14 14 13 13 13 12 12 11 11 10 8 9 9 7 5 6 7 8 8 7 6 7 9 11 11 12 10 10 9 9 11 12 10 8 7 7 8 9 12 14 14 13 13 14 14 14 15 15 14 15 15 16 17 18 19 20 21 21 20
8 9 11 12 16 21 22 23 25 24 21 19 19 19 19 18 18 18 18 19 20 20 19 18 18 17 16 16 15 15 15 15 14 14 13 13 13 12 12 9 6 8 9 9 9 10 9 8 9 11 12 13 12 10 7 7 8 8 8 9 9 9 9 9 11 14 15 14 14 14 14 14 14 14 14 16 17 18 17 17 17 17 18 19 19
10 8 9 10 11 14 17 19 21 21 20 19 18 21 24 21 18 18 18 19 20 21 21 20 20 19 18 18 17 17 17 16 17 16 14 15 16 15 14 12 10 11 11 9 7 9 12 11 11 13 14 14 14 12 9 8 7 7 9 10 11 11 11 11 12 14 16 16 15 14 13 13 15 15 15 16 17 17 17 17 16 15 15 16 17
7 6 8 10 11 11 13 14 15 16 18 17 16 19 24 25 23 20 19 19 20 21 22 22 21 20 20 20 19 19 19 18 18 18 16 16 18 17 16 14 13 12 11 9 8 9 12 11 10 12 14 14 14 12 9 8 8 9 10 10 11 12 11 12 13 13 15 16 16 16 16 16 17 17 16 16 16 16 17 16 16 15 15 15 15
6 8 10 11 12 11 10 11 13 16 18 21 21 20 22 24 25 24 21 21 21 21 22 22 22 22 22 21 20 20 20 19 20 19 18 18 18 18 16 15 14 13 12 12 11 12 13 12 11 12 13 13 13 11 10 11 12 11 11 11 11 12 13 13 14 15 16 18 19 19 19 19 18 17 16 16 16 15 15 15 15 16 16 17 17
6 10 10 8 7 6 4 6 9 11 14 18 22 24 25 25 25 25 24 23 24 23 23 23 23 23 22 22 21 20 19 19 20 20 18 18 19 19 18 16 15 14 13 13 13 13 13 13 13 14 14 13 13 13 13 14 15 14 14 14 14 14 15 16 16 16 17 18 19 19 19 18 18 17 15 15 15 15 15 16 16 16 17 16 14
9 12 11 8 6 4 2 3 6 7 9 12 15 20 23 23 22 22 22 21 23 24 25 25 25 24 24 23 22 21 20 20 21 20 19 19 20 20 19 18 16 15 15 14 14 15 15 14 15 15 15 15 14 15 15 16 16 16 16 16 15 15 16 17 16 16 17 18 18 18 18 17 17 17 15 14 15 16 16 16 16 13 12 12 13
5 7 8 8 9 10 11 11 11 12 12 13 15 18 18 18 19 20 21 23 24 25 25 25 24 24 25 24 23 23 22 22 23 22 21 21 23 22 21 20 17 17 17 16 15 16 16 16 16 16 16 16 16 17 17 17 17 17 16 16 17 18 19 18 17 17 17 17 17 17 17 17 16 16 15 14 14 14 13 13 15 15 15 19 23
1 3 4 6 7 10 13 15 16 17 17 15 16 18 16 15 16 18 21 23 25 24 23 23 23 24 25 24 24 25 25 24 24 24 23 23 24 23 22 20 17 17 17 16 16 17 17 17 18 18 18 18 18 18 18 18 18 18 17 18 18 19 20 20 20 18 17 18 18 17 17 17 16 16 15 14 14 14 15 16 19 21 21 23 24
1 2 3 5 6 6 7 9 10 12 14 13 14 16 14 13 13 15 18 19 21 21 22 23 24 25 25 24 24 26 26 25 26 27 27 26 24 23 22 20 18 17 16 15 16 17 17 17 19 21 21 20 20 20 19 18 19 19 18 18 19 20 21 22 22 21 20 20 19 18 19 19 18 17 17 16 16 17 18 19 20 20 20 20 21
4 3 3 4 5 5 6 7 7 8 10 10 11 12 12 12 12 14 17 17 17 17 19 21 23 24 24 24 25 27 28 27 29 32 32 29 25 23 22 21 20 18 17 16 16 16 16 16 17 20 22 22 22 23 22 21 21 21 20 20 20 20 22 23 24 24 24 24 23 21 20 21 20 19 18 18 17 17 18 17 17 17 18 19 20
5 4 5 5 6 6 7 7 8 9 9 10 10 10 11 11 12 13 14 16 17 16 16 18 19 20 23 26 28 29 29 30 32 36 37 33 28 25 23 22 21 19 18 17 16 14 15 16 17 20 22 22 22 22 23 23 24 25 26 26 25 24 23 23 24 25 25 26 27 26 24 24 22 20 18 17 17 17 17 17 18 19 20 21 21
5 5 6 7 7 8 8 9 9 10 10 10 10 10 11 11 12 13 13 15 17 18 18 18 18 18 22 25 25 28 30 32 35 37 36 33 31 27 21 19 19 17 16 17 17 17 17 18 18 19 20 21 21 21 20 20 22 26 28 29 30 29 27 26 26 26 26 27 29 31 30 29 28 25 21 20 21 21 20 19 20 20 21 22 21
6 6 7 8 8 9 9 9 10 10 11 11 11 11 12 12 13 13 13 14 16 18 19 19 18 18 21 21 21 26 32 33 34 36 35 33 31 26 19 18 18 17 17 19 19 19 20 19 19 18 17 17 18 17 18 20 23 25 26 26 27 28 28 29 29 29 29 29 30 31 30 29 30 29 27 27 27 27 24 23 23 23 24 24 24
7 8 9 9 9 9 9 10 10 11 11 12 12 12 13 13 14 14 14 14 15 16 17 18 17 18 21 21 22 28 33 32 31 33 33 32 29 25 21 21 21 20 19 20 20 20 20 20 19 18 17 17 17 19 21 23 24 26 26 27 27 26 26 26 27 28 28 28 28 27 25 23 24 24 24 26 28 29 29 29 29 28 28 28 29
9 9 9 10 10 10 10 10 11 12 12 12 13 13 13 14 14 14 14 14 14 15 16 17 16 16 19 21 24 30 33 31 30 30 31 30 28 24 22 23 22 19 19 19 19 19 18 17 16 17 17 17 19 23 25 25 26 27 28 29 29 27 26 25 25 27 27 27 27 26 25 25 26 28 30 30 30 30 31 33 33 32 31 30 29
10 10 10 11 10 10 10 11 11 12 13 13 14 14 14 14 14 14 15 15 15 14 14 16 17 16 17 20 26 32 33 29 27 28 29 28 25 22 21 20 19 18 17 17 15 13 13 14 15 17 18 18 22 26 27 27 27 29 31 32 30 27 26 25 25 26 27 27 29 29 29 30 31 33 35 36 36 35 36 38 36 33 32 31 29
11 12 12 12 11 11 11 12 12 13 14 14 15 15 15 15 15 15 15 16 16 15 14 15 16 16 17 22 28 32 31 27 26 27 27 25 23 19 15 13 12 12 11 11 11 10 11 15 18 20 20 20 23 26 28 29 30 32 33 33 30 27 27 27 26 24 23 24 26 27 28 30 30 31 31 32 35 36 39 43 42 36 32 31 29
13 14 14 14 14 14 14 14 15 16 17 17 17 17 16 16 15 15 15 15 15 15 13 13 15 18 22 26 30 30 28 27 26 25 24 22 20 15 11 9 7 6 7 9 9 10 11 14 18 20 20 20 22 26 30 31 33 34 35 34 33 31 29 27 24 22 22 23 25 25 26 26 26 27 27 26 26 28 33 40 41 38 37 35 31
15 16 16 16 15 15 15 16 16 17 18 19 19 18 17 16 16 15 15 16 15 14 14 14 17 21 24 27 29 26 25 26 25 23 20 19 17 16 14 11 8 8 9 9 9 11 11 12 17 20 20 21 25 29 32 34 36 36 36 36 36 35 33 30 27 27 28 29 31 31 30 29 27 26 26 25 23 22 24 28 30 30 32 33 32
17 17 17 18 18 17 17 17 17 18 20 20 20 19 17 16 16 16 16 16 14 15 17 19 21 23 24 26 26 23 23 24 23 20 18 17 16 15 13 12 11 11 11 11 11 13 12 12 17 22 23 25 29 32 34 36 37 37 37 37 37 35 34 34 34 33 32 32 32 32 30 30 28 27 26 24 23 21 21 22 23 23 25 27 28
18 18 18 19 19 19 18 18 19 20 23 24 22 20 17 16 15 16 16 16 17 19 20 22 23 22 22 24 24 24 23 21 19 17 15 13 13 12 12 12 12 13 15 15 14 14 13 13 18 23 26 28 31 33 35 36 37 38 38 37 34 33 32 33 33 32 30 29 29 28 26 25 25 24 24 23 22 21 20 20 21 22 24 25 25
19 19 20 20 20 19 19 19 19 20 22 23 22 20 17 16 16 16 15 14 17 20 20 20 21 22 23 24 23 23 21 18 16 14 12 10 10 11 11 12 13 14 15 16 16 16 16 15 18 24 27 28 30 31 32 34 35 35 34 31 28 27 27 27 26 25 25 25 24 24 23 23 23 23 23 22 21 20 20 20 20 21 23 24 25
20 21 21 20 20 20 20 20 19 19 19 18 18 18 17 16 16 17 16 15 16 19 20 19 19 22 24 24 22 19 17 14 11 8 7 8 9 10 11 13 14 14 15 17 17 18 19 19 21 24 25 26 27 29 29 28 27 26 25 23 21 21 21 21 19 18 19 20 20 21 21 21 22 23 22 21 20 20 21 20 19 19 21 23 24
21 21 21 21 20 20 20 19 19 19 17 16 16 17 17 17 16 16 17 16 16 18 19 19 20 24 25 23 19 15 12 9 7 5 6 7 8 10 11 12 12 13 14 15 16 18 19 20 21 24 25 25 25 24 21 19 18 19 19 18 18 18 17 16 15 16 17 18 19 21 21 21 21 22 22 21 22 22 21 21 19 19 19 20 23
22 21 21 21 20 20 20 20 21 20 19 19 18 17 17 17 17 16 16 16 15 14 16 20 25 27 24 19 14 11 8 6 3 1 3 4 6 8 10 10 12 13 12 14 16 18 21 23 25 25 25 23 20 17 15 15 16 16 16 16 17 18 15 14 15 17 18 19 20 21 21 20 20 21 22 22 22 22 21 21 20 19 18 19 21
23 22 21 21 20 20 21 21 22 21 21 21 19 16 15 17 17 17 19 19 14 13 17 25 28 24 19 16 13 10 8 6 4 2 0 2 3 6 8 9 11 12 12 14 17 19 22 24 23 21 19 18 17 16 16 17 16 15 15 15 17 17 16 16 18 19 20 21 21 21 21 21 21 22 22 22 22 21 20 20 20 20 19 18 19
24 24 23 22 21 21 20 21 22 21 20 19 16 15 16 18 18 19 18 16 15 17 24 28 26 21 17 14 12 11 10 10 8 6 4 4 4 5 6 6 8 10 11 13 16 18 20 20 16 14 14 15 16 16 15 14 14 15 15 15 16 17 17 18 19 21 21 21 21 22 22 22 22 23 22 22 22 22 21 21 20 19 19 20 22
26 25 24 23 23 21 20 19 19 20 19 17 16 16 16 16 16 16 14 15 19 24 27 24 21 21 19 15 13 12 12 11 9 6 3 2 2 4 5 6 7 9 11 13 16 17 16 14 12 12 14 15 15 14 14 14 15 15 16 16 16 17 17 18 19 20 21 22 23 25 26 26 26 26 25 24 24 24 23 24 24 23 24 26 30
25 25 24 24 23 22 20 18 18 19 19 18 17 17 15 14 15 16 18 22 26 27 25 21 18 19 19 17 15 13 11 8 5 3 1 1 3 4 6 7 8 10 11 13 14 13 11 11 13 14 15 14 14 14 14 15 16 16 17 16 17 17 18 19 20 21 22 24 25 26 28 29 30 29 28 27 27 26 26 27 28 29 30 32 34
24 24 23 22 21 20 20 20 21 19 17 16 17 17 15 16 17 18 22 26 26 24 22 20 18 16 16 15 14 11 8 6 4 2 2 4 6 7 8 9 9 10 12 13 12 11 11 13 15 14 14 14 14 14 15 16 16 17 18 18 18 18 19 20 20 20 21 23 25 27 28 29 30 29 29 29 29 28 28 28 29 31 32 32 33
24 23 22 22 23 22 22 23 23 20 17 16 16 17 20 25 27 27 27 25 22 20 19 19 18 16 14 12 10 8 7 5 3 3 4 6 7 8 9 9 9 11 13 14 14 13 13 14 15 14 14 14 14 15 15 16 17 18 19 19 20 20 21 20 20 20 22 24 26 28 29 30 30 30 29 29 29 28 28 28 30 31 31 31 32
25 24 23 23 24 24 26 25 21 18 17 18 21 25 30 34 33 31 27 23 20 19 18 16 15 14 11 9 8 6 5 4 4 5 7 8 9 9 9 9 12 15 16 14 12 13 15 15 15 15 15 15 15 15 15 17 18 19 19 20 21 21 21 21 21 22 23 25 25 27 28 28 28 29 29 29 29 28 28 28 29 29 30 30 31
25 24 24 24 24 24 25 24 20 17 19 26 32 34 34 34 33 32 30 26 22 19 16 15 14 11 9 7 6 5 4 4 5 7 9 10 9 9 11 14 15 16 16 15 14 14 16 15 15 15 15 15 16 16 16 18 19 20 21 22 22 22 23 24 23 23 24 24 24 24 25 25 26 27 28 28 28 28 28 28 28 28 29 30 30
25 25 26 26 24 22 23 24 23 24 29 34 36 34 32 32 31 30 28 25 22 19 16 14 11 9 7 5 4 3 4 5 7 9 11 13 13 13 15 15 13 12 13 14 14 15 15 15 15 15 15 15 15 16 17 18 19 20 22 22 22 23 24 25 25 25 26 26 26 25 25 25 25 27 28 28 28 28 29 29 29 29 29 29 30
27 26 25 25 23 23 26 28 29 32 36 36 34 31 29 28 27 25 23 21 19 17 14 11 9 7 5 4 3 3 3 5 8 11 14 15 15 14 13 12 12 11 11 12 14 14 14 14 15 15 15 15 16 16 17 18 19 20 21 22 22 23 24 24 25 27 27 26 26 26 26 26 26 26 27 27 27 28 28 29 28 29 29 30 30
25 23 22 23 25 29 33 34 36 37 36 33 29 27 26 25 24 23 21 18 16 13 11 9 7 5 4 4 2 2 4 7 10 12 13 14 14 14 12 12 13 12 12 13 14 14 14 14 14 15 15 15 16 17 18 20 21 21 22 23 24 25 26 27 27 28 27 27 26 26 26 26 25 24 24 26 26 26 26 26 26 26 27 29 29
22 23 27 30 34 37 38 38 36 34 31 28 27 26 26 24 22 19 16 13 11 10 8 6 4 3 2 2 2 3 5 8 10 10 11 13 13 12 11 11 12 12 13 14 13 13 13 14 14 14 14 14 15 18 20 21 22 21 21 23 25 27 28 29 29 28 28 27 26 26 26 26 25 23 23 24 24 24 24 24 24 24 25 26 27
29 32 34 37 38 38 37 34 32 30 29 28 26 24 22 19 16 14 12 11 11 10 7 4 3 3 0 3 3 3 4 7 7 7 8 9 9 9 10 11 12 12 13 14 13 12 12 13 13 13 13 13 16 21 23 23 22 22 22 23 26 28 29 30 30 30 29 28 26 26 25 24 23 22 22 22 23 23 23 23 23 23 23 24 24
37 37 37 38 38 36 34 32 31 31 29 26 22 20 18 16 14 13 13 11 11 9 7 5 4 5 5 5 4 4 4 5 5 5 6 7 8 9 10 10 11 12 13 13 12 12 12 12 13 14 14 14 18 23 25 25 23 23 23 24 26 28 30 31 31 31 30 29 27 25 24 23 22 21 21 21 21 21 21 22 22 20 20 21 21
37 37 37 37 35 31 28 26 25 25 25 22 19 17 16 14 13 12 12 10 9 7 6 5 5 7 7 6 6 5 3 1 4 5 5 5 6 8 10 10 10 12 13 12 11 12 12 12 13 14 15 18 21 24 25 26 25 25 26 26 27 28 30 31 32 31 31 30 28 25 24 22 20 19 19 17 16 17 16 16 16 15 15 16 17
31 32 32 31 27 24 23 23 22 21 21 19 17 15 14 13 11 10 10 9 7 6 5 4 5 8 7 6 6 4 0 2 5 6 5 5 6 7 8 9 10 11 11 11 10 11 12 13 14 15 18 21 22 23 25 26 27 28 28 28 28 29 30 31 32 31 30 29 27 24 22 20 17 16 14 12 12 12 11 10 9 9 10 10 11
25 26 26 24 22 22 22 22 21 20 19 17 14 12 11 10 10 10 8 7 6 5 4 3 3 7 6 5 5 3 2 3 5 6 6 8 8 7 7 9 10 10 10 10 10 10 12 13 14 16 19 22 22 22 25 27 28 29 30 29 29 30 31 32 32 31 30 28 25 22 20 17 15 13 11 9 9 10 8 6 6 7 8 8 9
22 22 21 20 20 21 21 19 19 18 16 14 13 12 12 11 10 9 8 7 6 4 3 3 3 3 4 4 4 2 2 4 7 7 7 8 7 7 7 9 11 12 11 10 10 11 13 14 15 17 20 22 23 24 26 27 27 28 29 29 29 30 31 32 32 31 29 26 23 20 18 16 14 12 9 7 7 7 6 6 7 8 9 10 11
19 19 18 17 18 19 19 18 16 14 12 10 11 12 12 11 10 8 6 6 5 4 3 4 4 3 2 3 4 4 5 5 5 5 5 5 6 6 7 9 12 14 13 10 10 12 14 15 16 19 22 24 26 26 27 27 27 28 27 28 29 31 32 32 31 29 26 23 21 19 17 15 12 11 8 6 5 6 6 7 8 9 9 9 9
18 17 17 18 18 18 17 15 13 11 10 10 10 11 10 8 7 6 4 3 4 5 4 3 3 3 3 4 5 5 4 4 3 3 4 4 4 7 9 11 13 14 14 12 12 13 14 16 18 20 22 25 28 28 28 28 28 27 26 27 29 31 32 31 29 27 23 20 19 17 16 14 12 10 7 5 4 5 6 6 7 7 7 6 5
18 17 18 19 18 16 15 12 10 9 9 9 8 8 7 6 5 4 3 3 4 4 3 2 2 3 5 6 5 3 2 2 2 3 3 4 5 8 10 12 13 14 14 13 13 14 15 16 19 20 22 26 28 29 30 30 29 28 26 27 29 31 31 29 27 25 22 19 18 17 16 14 13 11 8 5 4 3 4 4 4 4 4 4 6
17 17 17 16 15 13 11 9 8 7 7 7 6 6 5 5 4 3 2 3 3 3 2 2 2 3 6 7 6 4 3 2 2 2 3 4 5 8 10 11 12 13 13 13 14 14 15 17 18 20 22 26 29 31 31 31 30 29 28 27 29 30 30 28 27 25 22 19 17 16 16 15 13 11 9 7 5 3 2 2 2 4 5 5 7
16 16 16 14 12 10 9 9 8 8 7 6 5 5 5 4 3 2 2 3 3 2 2 1 2 3 5 6 6 5 5 5 3 1 1 2 4 7 10 10 11 12 13 13 14 14 15 17 18 19 21 23 26 29 32 32 32 31 29 28 28 30 29 27 27 26 23 20 18 17 17 15 13 11 9 8 6 4 2 1 2 4 6 8 10
14 13 12 10 9 8 9 8 7 6 6 6 5 5 4 2 1 1 2 3 3 2 2 2 3 4 4 4 4 5 5 5 4 1 1 2 5 7 9 9 10 11 12 13 13 13 15 16 16 17 19 21 23 27 31 32 31 32 30 28 28 28 28 27 27 26 24 22 19 18 17 16 14 11 10 9 7 5 3 3 4 6 8 11 13
13 13 12 11 10 8 7 7 6 6 5 5 4 3 2 1 1 1 2 2 2 2 2 3 4 4 3 2 2 3 4 5 4 1 1 3 5 7 8 8 9 10 12 13 13 13 14 16 15 15 16 17 20 26 31 31 30 31 31 28 27 28 27 26 26 26 25 23 21 19 18 17 14 12 11 10 8 7 5 5 6 8 10 12 14
Wind_Direction
212 216 216 218 223 224 222 224 226 227 227 228 229 231 231 232 229 222 222 226 230 242 250 246 247 251 249 250 255 259 262 261 263 262 262 266 260 256 272 283 263 260 281 295 298 306 323 331 330 336 346 350 347 342 336 323 325 333 326 312 298 285 280 275 277 282 283 282 284 286 287 286 286 287 288 287 283 282 284 286 286 287 287 287 284
202 223 230 228 229 227 225 228 232 233 233 233 234 236 237 239 239 231 225 226 231 241 249 248 246 244 239 239 242 247 254 256 259 258 253 255 256 260 274 279 255 257 280 294 294 297 307 313 314 321 331 338 342 343 329 306 306 307 297 291 287 283 280 275 277 281 283 284 285 286 288 288 286 286 286 285 285 288 288 288 288 287 286 285 283
184 203 229 237 236 233 232 233 235 238 241 243 242 244 246 243 238 236 233 230 230 234 242 247 247 243 236 233 233 236 241 242 249 254 247 248 258 264 268 268 260 269 285 291 285 290 303 311 311 313 323 331 336 338 329 316 308 296 287 285 284 285 284 280 281 282 284 288 289 288 288 286 283 285 287 288 289 290 290 291 290 286 282 280 280
199 216 236 242 235 229 230 233 236 237 239 243 244 250 256 251 244 244 241 237 234 232 236 239 239 237 233 230 229 232 234 232 238 247 243 244 255 261 262 263 261 267 276 276 268 276 291 302 303 304 314 323 327 331 325 311 305 297 291 291 292 293 290 287 287 285 285 288 290 291 290 287 287 289 290 290 288 288 289 290 290 289 284 279 277
236 242 239 239 232 227 231 237 238 237 238 242 243 249 261 258 250 247 241 239 240 236 234 233 229 227 227 226 224 226 228 225 229 240 243 242 249 253 255 258 258 260 264 268 271 276 283 289 290 293 303 312 316 317 307 298 299 298 293 291 289 286 282 280 281 282 284 286 288 291 292 291 290 289 288 288 285 285 285 282 283 284 282 279 277
185 204 205 206 208 213 233 247 249 248 248 251 249 250 256 255 250 248 247 247 248 242 238 236 231 227 225 224 223 222 223 223 224 231 236 238 244 249 250 251 254 257 262 270 277 280 284 285 286 288 296 302 303 303 301 302 303 302 299 296 292 287 284 284 285 285 285 285 287 290 291 291 290 289 287 285 283 283 284 283 283 283 285 288 288
159 186 191 187 189 203 236 261 270 267 255 256 258 255 254 251 249 253 255 253 251 248 243 239 234 230 226 226 225 222 224 228 227 226 225 229 240 247 249 251 254 257 263 270 276 282 287 287 286 288 291 295 298 300 302 303 303 302 301 299 297 293 291 290 289 287 284 284 285 287 288 288 288 288 288 285 283 283 285 287 288 286 282 275 271
193 218 228 233 245 257 261 265 277 281 268 258 258 258 257 256 256 260 258 251 248 246 243 239 236 232 229 230 228 225 224 226 229 226 219 225 236 243 247 252 255 258 265 272 275 282 289 288 286 287 288 293 299 300 302 302 301 301 299 296 294 293 293 292 289 287 286 285 285 285 286 286 285 285 287 286 285 284 285 285 284 282 277 273 276
216 274 296 298 286 271 261 259 263 267 268 264 261 262 265 269 269 265 256 247 244 244 242 241 239 233 232 232 230 227 224 225 229 225 218 224 235 240 244 249 250 253 263 272 277 284 289 289 289 289 291 296 299 300 303 303 301 301 299 296 295 293 293 292 290 288 286 285 285 284 285 284 284 285 285 283 281 281 282 281 282 284 284 284 286
347 340 339 333 323 307 286 276 267 262 267 272 272 273 276 276 273 266 256 247 243 243 243 243 240 235 235 236 233 228 224 225 227 223 220 225 230 233 239 244 246 251 258 266 274 282 286 288 289 290 292 296 299 301 304 303 301 300 298 296 295 293 292 290 289 287 285 284 284 284 284 282 281 282 282 281 280 280 282 282 283 285 287 287 287
327 324 321 318 315 309 297 290 283 275 275 278 278 279 278 274 268 264 261 257 252 248 246 246 245 244 243 239 232 225 222 224 227 225 226 228 227 228 237 243 246 250 256 263 270 277 282 284 285 290 296 301 304 306 307 306 303 301 298 297 295 293 291 290 289 286 284 281 280 279 278 279 280 281 281 283 283 283 283 282 281 283 284 285 286
327 322 312 309 307 300 291 284 281 279 277 277 278 278 273 270 268 264 263 263 262 260 252 247 248 251 249 242 231 224 225 228 227 226 229 232 232 234 240 246 249 252 257 262 266 267 271 276 282 290 299 302 304 307 310 311 309 307 306 305 301 298 294 291 289 288 285 282 280 277 274 272 274 277 279 282 284 283 280 277 277 279 280 279 279
314 309 307 306 302 296 291 288 286 283 282 281 281 279 276 274 271 266 262 259 261 263 257 250 250 249 248 245 237 231 232 231 227 228 233 237 238 239 241 245 248 251 253 257 262 264 267 274 284 292 297 299 303 309 311 310 308 308 309 309 307 306 303 298 295 293 289 285 282 279 276 271 268 267 268 268 270 273 277 278 278 278 278 276 275
301 299 300 299 297 293 292 290 287 286 287 286 284 283 280 276 271 267 263 257 257 263 261 256 254 250 246 243 236 230 231 231 230 234 237 239 240 238 234 236 242 246 251 258 266 271 273 278 284 286 288 292 298 300 298 299 301 303 305 306 305 304 302 300 300 298 295 291 287 284 282 276 270 267 265 262 262 264 268 270 270 271 272 272 271
293 293 294 293 292 291 288 286 286 287 289 288 288 285 280 276 272 266 263 258 255 260 262 258 254 249 243 238 229 226 229 232 236 239 238 237 238 234 229 234 244 250 257 263 270 274 278 282 285 288 291 292 289 286 291 298 300 300 301 304 304 300 294 292 292 292 293 291 288 287 285 280 274 270 266 262 260 258 258 259 258 259 262 266 270
287 287 287 289 290 287 284 284 286 287 289 288 285 283 279 275 271 264 262 259 252 252 257 256 251 245 240 233 226 227 230 235 239 238 234 233 233 230 230 239 248 255 260 267 274 280 286 288 287 290 292 289 285 287 294 299 300 301 305 308 307 301 293 289 287 286 286 283 280 278 276 272 269 268 267 265 261 259 259 260 258 257 261 268 273
284 284 285 287 286 281 282 285 287 288 290 288 285 282 279 274 270 264 260 257 253 250 251 249 244 241 236 228 226 229 232 234 235 231 228 229 229 228 233 242 251 258 265 271 278 284 284 280 279 283 286 286 287 291 297 301 302 304 307 309 306 299 293 291 288 284 283 280 279 279 277 275 273 269 266 264 261 259 259 260 261 260 263 269 271
281 283 285 286 283 280 280 281 284 286 287 287 285 282 278 275 270 263 258 256 254 249 247 246 244 238 228 222 226 232 233 231 226 221 222 225 225 227 233 243 253 261 265 269 273 273 272 274 280 287 291 291 290 293 297 301 302 303 305 305 303 296 292 292 289 284 282 281 282 284 284 284 282 279 273 267 262 258 256 258 260 260 261 264 267
280 280 282 284 281 279 279 280 283 286 287 288 286 281 277 274 268 262 258 257 254 249 245 242 239 233 224 221 227 233 232 224 216 213 217 221 221 220 219 220 232 246 257 266 271 271 273 279 287 291 293 290 286 288 293 295 297 299 301 301 298 294 293 291 286 281 278 274 273 275 276 277 281 283 282 278 271 263 257 257 257 257 257 259 262
277 278 281 282 279 278 278 279 282 286 289 290 287 282 276 270 264 259 255 254 255 253 243 230 231 234 231 228 231 232 226 217 211 209 215 219 220 221 221 224 235 251 260 267 274 276 278 283 286 285 284 283 283 285 288 291 294 296 297 296 295 294 291 287 281 277 273 270 268 268 267 266 267 270 272 274 272 268 262 258 255 254 255 256 257
275 277 278 278 276 276 275 275 277 281 284 285 285 283 276 267 261 256 251 248 247 242 232 224 229 236 234 228 225 218 211 209 207 207 213 220 227 235 243 252 260 267 271 274 280 282 284 285 283 280 280 280 282 284 287 290 292 293 292 292 292 291 288 284 282 279 276 274 273 271 270 269 268 268 269 269 266 264 263 260 256 253 252 253 255
272 274 275 274 274 272 270 270 272 276 280 284 284 280 273 265 258 252 248 242 235 233 232 230 231 231 225 219 213 204 200 202 204 207 216 227 241 256 268 275 277 280 284 287 288 284 282 282 280 279 281 282 284 287 289 290 290 290 290 290 289 287 285 282 280 278 276 276 276 275 274 274 272 270 269 266 264 262 262 261 258 256 254 252 253
271 273 273 271 270 268 266 266 266 269 276 281 282 278 270 261 254 248 242 232 226 230 235 235 229 223 213 205 201 198 197 198 203 214 227 242 259 271 278 282 285 288 290 292 291 288 286 283 277 276 280 282 284 285 286 286 286 286 286 287 287 287 286 283 280 277 276 275 275 274 274 273 271 270 268 265 264 263 262 262 260 258 258 256 255
270 272 271 270 269 266 263 263 263 264 268 273 276 273 265 257 251 241 230 224 227 233 236 231 221 212 203 193 190 192 194 196 205 222 243 260 273 281 284 288 292 295 295 295 293 290 286 282 279 281 284 286 286 286 286 286 286 286 287 290 293 295 293 286 280 277 276 274 273 272 272 271 270 269 268 267 266 265 263 262 259 257 259 259 257
267 267 267 267 266 264 263 262 261 261 264 267 268 266 260 254 241 225 222 230 235 233 229 218 202 195 189 183 182 186 187 191 202 222 248 264 276 283 287 292 292 291 291 290 290 290 291 292 295 297 298 299 298 296 295 294 294 296 299 302 305 304 295 282 277 277 276 275 275 274 274 272 270 270 271 270 269 266 263 260 258 257 257 256 256
263 263 263 264 263 263 263 262 262 263 263 261 261 263 260 250 234 226 236 242 231 216 209 198 189 185 181 175 174 179 180 179 182 216 273 287 296 297 299 303 298 295 296 298 302 306 307 308 309 308 308 312 311 306 304 306 307 306 307 309 311 308 297 282 279 280 279 279 280 278 277 275 272 271 271 270 268 266 265 263 261 260 257 256 257
259 259 260 261 261 262 262 262 263 262 259 259 260 258 252 245 243 248 250 239 215 190 185 185 180 174 168 163 164 164 156 143 125 103 304 287 293 300 309 313 309 309 311 307 306 307 305 304 306 309 314 320 318 311 311 314 314 310 307 305 303 299 291 282 280 281 281 280 279 277 278 277 274 272 270 269 267 265 264 262 261 260 256 253 255
257 258 258 258 260 262 262 261 260 256 255 258 258 250 248 252 255 252 241 221 198 180 175 175 169 160 152 152 153 149 146 155 169 188 218 236 245 265 282 288 294 300 302 300 301 304 305 307 312 315 316 314 311 309 309 306 304 302 299 297 293 289 287 285 283 282 282 280 278 277 277 274 272 271 269 268 267 265 264 263 261 258 255 254 258
257 257 256 256 257 257 257 257 256 252 247 246 244 245 249 248 240 226 206 189 184 177 168 163 158 154 151 150 150 152 160 172 184 197 221 247 267 286 295 298 301 304 308 311 314 315 319 324 322 315 312 309 306 306 304 302 302 301 299 297 295 292 290 288 286 284 282 281 278 276 274 272 271 270 268 266 265 264 264 262 259 257 257 259 263
254 252 251 251 252 252 251 249 249 246 242 238 241 244 236 218 209 203 187 174 170 165 159 155 154 155 154 154 154 156 158 159 157 153 141 10 351 344 338 329 320 318 320 323 325 328 333 330 320 314 313 312 308 307 307 306 305 304 302 299 296 294 291 289 288 286 283 281 279 277 277 278 278 275 272 270 269 268 268 265 261 261 262 264 266
252 249 247 245 246 247 246 242 237 233 230 231 236 233 212 186 174 169 163 160 158 157 156 153 149 148 150 150 147 143 140 135 125 98 44 13 3 358 350 337 324 323 330 340 352 356 341 324 319 318 315 312 310 309 308 307 306 305 304 302 299 297 294 291 290 287 283 281 279 279 280 281 281 280 278 277 276 274 272 269 265 264 264 264 264
248 244 242 241 240 240 241 238 229 220 217 218 216 201 174 157 149 147 149 151 152 152 152 148 144 144 144 140 137 134 128 119 92 51 27 10 4 357 345 336 338 346 354 3 7 355 335 323 321 319 315 313 312 310 308 307 306 305 304 302 299 297 294 293 291 288 284 282 281 282 282 281 280 280 279 278 278 276 272 270 268 267 266 263 261
244 242 242 240 236 234 235 230 217 210 208 196 177 163 155 150 147 146 148 149 150 149 147 143 142 141 138 135 135 130 115 94 58 34 19 6 358 348 342 353 3 2 3 8 0 338 328 325 322 318 316 314 312 310 309 307 307 306 304 301 298 295 294 296 296 292 291 291 289 287 285 283 280 279 279 278 279 279 277 274 271 267 264 261 260
242 240 237 234 233 232 228 216 198 184 176 166 158 154 153 152 149 148 147 148 149 149 145 140 137 136 135 135 130 114 89 65 41 24 10 359 354 358 11 19 13 360 356 358 347 332 328 328 323 319 318 314 311 311 310 308 307 305 302 300 297 295 296 301 303 303 305 305 300 293 288 283 279 279 279 279 278 276 274 272 270 266 262 260 260
236 232 228 230 232 224 209 195 181 167 159 155 153 151 150 148 147 146 145 147 148 146 141 138 137 136 135 132 121 99 73 48 30 19 13 11 17 28 31 21 4 350 348 346 336 329 328 327 323 319 317 312 310 310 308 306 305 304 302 301 299 298 300 304 307 310 312 310 306 301 297 291 286 283 283 282 279 274 270 266 265 264 263 262 262
231 229 226 226 219 199 181 171 163 155 151 150 149 148 146 144 143 143 144 145 146 144 142 140 138 137 137 129 114 87 58 34 21 20 24 25 28 36 32 8 343 338 340 335 329 328 328 325 322 319 316 313 312 310 308 306 305 303 303 304 306 307 309 310 311 313 314 313 310 307 305 301 296 290 287 284 281 277 274 271 267 263 261 260 261
224 218 207 198 185 169 158 152 149 148 146 146 146 146 146 147 148 150 151 150 148 149 151 151 151 152 140 117 91 50 34 25 19 21 26 24 20 22 18 355 338 338 337 332 330 329 327 325 324 320 318 316 315 315 313 310 308 306 305 308 314 318 319 319 318 318 318 316 314 310 307 305 302 297 292 288 284 281 280 278 273 267 261 258 257
196 182 171 162 154 148 145 145 146 146 145 144 146 149 151 151 151 151 150 148 149 156 163 161 147 127 76 27 10 23 31 25 19 20 22 16 8 4 357 344 338 337 334 331 330 328 327 328 327 323 321 321 323 327 325 319 313 312 311 314 320 325 325 324 324 323 322 321 320 315 310 308 307 304 300 295 291 286 282 280 277 272 266 260 256
153 150 146 143 141 141 141 143 144 143 141 142 145 147 146 144 143 146 152 155 156 161 168 161 112 103 50 315 321 341 351 349 352 2 5 359 351 345 340 339 339 336 332 330 330 330 330 329 328 328 327 327 333 338 336 329 322 320 320 322 325 327 328 328 328 327 327 327 325 321 316 312 310 308 304 298 292 288 284 280 277 272 266 260 257
127 128 130 131 132 131 130 131 134 136 136 136 137 138 140 143 147 154 160 163 161 163 168 166 157 174 209 247 250 232 257 308 332 339 333 331 336 339 338 336 336 334 332 330 330 332 331 331 332 333 331 331 338 343 344 340 335 332 330 329 328 327 328 330 330 330 331 331 329 326 322 318 315 312 307 299 293 288 282 277 274 271 265 257 255
119 122 124 125 124 124 125 129 133 135 136 137 137 139 142 146 149 153 156 158 159 159 156 161 194 224 250 273 263 226 204 293 323 314 316 324 332 337 335 334 336 335 332 330 332 333 333 333 334 333 333 336 342 346 346 345 343 340 339 337 333 331 331 332 333 334 335 334 331 328 325 323 319 312 305 300 295 288 280 271 265 263 260 253 247
118 121 123 124 124 125 129 131 133 135 135 135 135 135 138 140 144 149 153 153 154 158 155 170 233 255 265 274 268 255 261 345 307 303 313 313 313 326 335 335 336 335 332 333 336 334 332 334 333 333 337 342 345 347 346 345 344 344 343 341 338 337 336 336 337 338 338 335 332 329 327 325 320 313 307 305 301 292 280 266 256 254 257 256 243
113 117 122 123 123 124 125 126 129 130 130 129 127 127 132 140 142 142 144 142 140 144 147 161 263 281 282 278 278 294 348 320 288 288 292 291 298 323 337 334 334 339 339 339 339 335 334 335 335 336 341 344 346 347 347 346 346 346 345 342 341 341 340 340 341 342 340 336 332 331 330 328 325 320 314 308 302 294 276 254 246 246 247 247 237
110 114 118 119 121 126 130 131 132 134 136 139 136 128 125 130 132 131 138 146 146 141 148 173 228 279 305 314 311 308 275 265 272 280 287 295 309 330 335 333 341 348 348 345 341 339 340 342 341 342 345 347 348 349 348 346 346 347 347 344 343 344 343 343 344 344 341 337 335 335 335 334 333 329 324 314 301 286 258 235 235 235 233 238 242
108 109 110 116 126 134 138 139 141 143 145 148 146 141 141 147 150 150 157 173 189 207 227 239 243 246 275 298 294 277 261 271 295 313 312 310 320 332 336 343 350 353 353 351 345 343 346 350 349 346 347 349 351 352 349 347 348 351 351 349 347 347 346 347 347 345 342 341 340 340 341 342 339 334 333 329 306 274 250 240 242 242 241 247 249
112 115 121 131 141 148 151 154 160 163 158 152 153 159 165 170 174 176 178 196 220 229 235 253 271 271 263 270 281 287 288 296 316 323 312 313 335 348 353 355 356 357 358 356 352 351 355 358 355 351 348 350 353 355 353 353 355 356 356 354 353 352 351 351 351 350 349 347 346 345 347 348 345 341 342 343 321 282 259 252 250 243 240 239 226
129 132 138 146 152 157 161 165 169 170 167 162 163 169 173 171 173 179 186 204 223 230 232 240 281 287 278 272 274 297 319 310 303 317 331 340 350 359 1 1 1 2 2 359 358 1 5 6 2 356 350 352 357 0 360 359 359 1 1 0 358 356 354 355 357 357 356 355 354 355 356 355 352 351 355 359 349 315 276 260 248 227 212 201 181
146 147 150 153 157 159 160 158 155 152 152 152 153 155 158 159 160 168 195 220 223 219 222 235 261 278 279 278 280 289 298 293 298 345 356 337 336 355 6 7 6 5 4 2 3 7 12 14 8 358 352 354 0 4 5 4 4 5 6 4 1 359 359 1 4 5 3 2 2 3 4 3 1 3 7 10 2 342 305 266 208 186 184 177 172
159 161 162 163 164 160 150 143 141 140 141 144 146 145 145 151 163 184 211 220 213 199 196 229 253 260 269 277 282 281 277 275 286 339 20 345 345 0 8 12 12 10 7 6 7 12 19 22 15 360 353 356 360 3 6 8 8 8 9 8 4 3 5 8 10 10 10 9 10 11 12 12 11 14 22 26 20 10 3 53 122 151 164 165 167
147 149 151 150 148 141 134 132 134 136 136 136 135 134 138 151 187 208 201 207 214 209 205 216 227 237 255 276 280 274 271 272 275 293 38 31 16 10 10 15 20 17 11 10 11 14 24 29 19 1 356 -0 2 4 7 10 10 11 12 11 8 8 11 15 16 16 15 16 17 18 20 20 20 25 36 41 40 42 57 86 114 140 157 162 164
128 128 128 127 124 122 123 125 127 128 130 132 134 141 160 183 191 182 189 217 250 253 245 243 239 232 240 268 279 272 274 275 270 260 68 44 24 14 13 22 28 23 17 15 13 15 26 34 24 2 355 1 5 7 10 13 13 13 15 14 13 13 16 20 22 21 19 19 20 22 24 26 27 33 42 47 51 64 87 111 126 140 153 158 161
Height
1500 1502 1503 1504 1505 1507 1509 1509 1511 1512 1513 1514 1515 1517 1518 1520 1521 1520 1518 1518 1518 1518 1520 1520 1521 1522 1523 1523 1524 1524 1524 1525 1525 1526 1526 1527 1527 1527 1527 1528 1529 1529 1529 1529 1530 1530 1530 1530 1530 1529 1529 1529 1529 1529 1528 1528 1527 1527 1527 1527 1527 1527 1526 1526 1526 1524 1524 1523 1523 1522 1521 1520 1519 1519 1519 1518 1517 1516 1515 1514 1514 1513 1513 1512 1512
1498 1501 1502 1504 1504 1506 1507 1507 1508 1510 1511 1512 1513 1515 1516 1518 1519 1520 1518 1518 1517 1517 1518 1518 1519 1520 1521 1521 1522 1523 1523 1523 1524 1524 1525 1525 1525 1526 1526 1527 1528 1528 1528 1528 1528 1528 1528 1529 1529 1528 1528 1528 1527 1527 1528 1528 1528 1527 1527 1527 1526 1526 1525 1525 1524 1523 1521 1521 1521 1520 1519 1519 1518 1517 1517 1515 1514 1514 1513 1512 1512 1512 1511 1511 1510
1495 1498 1501 1503 1504 1504 1505 1506 1506 1508 1509 1511 1513 1513 1513 1514 1516 1517 1518 1518 1518 1517 1516 1516 1517 1517 1518 1519 1520 1520 1521 1521 1522 1522 1523 1524 1524 1524 1525 1526 1526 1526 1526 1527 1527 1526 1526 1527 1527 1526 1526 1526 1526 1526 1526 1526 1526 1526 1526 1525 1525 1524 1523 1523 1522 1520 1519 1518 1518 1518 1518 1517 1516 1515 1514 1513 1512 1511 1511 1510 1510 1510 1510 1509 1509
1493 1496 1500 1503 1503 1503 1504 1504 1505 1505 1506 1509 1511 1511 1511 1512 1513 1513 1515 1517 1517 1517 1516 1516 1516 1516 1516 1517 1517 1518 1519 1519 1520 1520 1521 1522 1522 1522 1523 1524 1525 1525 1525 1526 1526 1526 1525 1525 1525 1525 1525 1525 1524 1524 1524 1524 1524 1524 1524 1524 1523 1522 1522 1521 1520 1519 1518 1516 1516 1515 1515 1514 1513 1513 1512 1512 1511 1510 1509 1509 1508 1508 1508 1508 1507
1489 1495 1502 1503 1502 1503 1502 1502 1503 1502 1503 1505 1507 1509 1510 1510 1509 1509 1510 1513 1514 1515 1516 1515 1515 1514 1514 1515 1516 1517 1517 1518 1518 1518 1519 1520 1520 1521 1521 1522 1523 1523 1524 1524 1524 1525 1524 1524 1524 1524 1523 1523 1523 1523 1523 1523 1522 1522 1522 1522 1521 1521 1520 1519 1518 1517 1516 1515 1514 1513 1512 1512 1511 1511 1510 1510 1509 1509 1508 1507 1506 1506 1505 1504 1504
1489 1496 1502 1502 1501 1501 1500 1500 1501 1501 1502 1503 1504 1505 1507 1508 1507 1506 1507 1508 1509 1511 1513 1513 1513 1513 1513 1514 1515 1516 1517 1517 1517 1516 1517 1518 1518 1519 1519 1520 1521 1521 1522 1522 1522 1523 1523 1523 1523 1523 1522 1522 1522 1522 1521 1521 1520 1520 1520 1519 1519 1518 1517 1516 1516 1515 1514 1513 1512 1511 1510 1510 1509 1508 1508 1508 1507 1506 1505 1504 1504 1503 1502 1501 1501
1494 1498 1500 1499 1498 1498 1498 1499 1500 1500 1500 1501 1502 1503 1503 1504 1504 1504 1505 1506 1506 1508 1509 1510 1511 1511 1511 1512 1513 1514 1515 1516 1517 1516 1515 1515 1515 1516 1517 1517 1518 1519 1519 1520 1520 1520 1521 1521 1521 1521 1521 1520 1520 1520 1519 1519 1518 1518 1518 1517 1516 1516 1515 1514 1514 1513 1512 1511 1510 1509 1508 1508 1507 1506 1506 1506 1505 1504 1503 1502 1501 1501 1500 1500 1499
1495 1497 1497 1496 1495 1494 1496 1498 1498 1498 1499 1499 1502 1502 1502 1501 1500 1501 1503 1504 1504 1505 1506 1507 1508 1508 1508 1509 1510 1511 1512 1513 1515 1515 1513 1511 1512 1513 1514 1515 1516 1516 1516 1517 1517 1517 1518 1519 1519 1519 1519 1518 1518 1518 1517 1517 1516 1516 1516 1515 1514 1514 1513 1512 1511 1511 1510 1509 1508 1508 1507 1506 1505 1505 1504 1504 1503 1502 1502 1500 1499 1498 1497 1496 1495
1494 1495 1495 1494 1493 1492 1494 1495 1496 1497 1498 1498 1500 1500 1499 1498 1497 1498 1501 1502 1502 1502 1503 1504 1505 1505 1505 1506 1507 1508 1508 1509 1511 1513 1511 1509 1509 1510 1511 1512 1513 1513 1514 1514 1515 1515 1515 1515 1516 1516 1516 1516 1515 1515 1515 1514 1514 1514 1513 1513 1512 1512 1511 1510 1509 1509 1508 1507 1507 1506 1505 1504 1503 1503 1502 1502 1501 1500 1499 1498 1496 1495 1494 1492 1491
1492 1493 1493 1493 1493 1493 1494 1494 1495 1496 1497 1497 1497 1496 1495 1495 1495 1497 1498 1498 1499 1500 1500 1501 1501 1501 1502 1503 1504 1504 1505 1506 1508 1510 1509 1507 1507 1508 1509 1510 1511 1511 1512 1512 1512 1512 1512 1513 1512 1512 1513 1513 1513 1512 1512 1512 1511 1511 1511 1510 1510 1509 1508 1507 1506 1506 1505 1504 1504 1503 1502 1501 1501 1500 1500 1499 1499 1497 1496 1495 1494 1493 1492 1490 1489
1491 1491 1492 1492 1493 1493 1494 1495 1495 1495 1496 1496 1495 1494 1494 1494 1494 1495 1495 1496 1496 1497 1497 1497 1497 1497 1498 1499 1501 1501 1501 1502 1504 1506 1505 1505 1505 1505 1506 1507 1508 1509 1510 1510 1511 1511 1510 1510 1510 1509 1509 1509 1509 1509 1508 1508 1508 1508 1508 1507 1507 1506 1505 1504 1503 1503 1502 1501 1500 1500 1499 1498 1497 1497 1497 1496 1496 1495 1494 1493 1492 1490 1490 1488 1486
1490 1490 1491 1491 1492 1493 1493 1494 1494 1494 1494 1494 1494 1493 1493 1493 1493 1493 1493 1494 1494 1494 1494 1494 1495 1495 1495 1495 1497 1498 1497 1498 1500 1501 1502 1502 1503 1503 1504 1505 1505 1507 1508 1508 1509 1509 1509 1508 1508 1507 1507 1506 1506 1506 1505 1504 1503 1503 1503 1503 1503 1503 1502 1501 1500 1499 1499 1497 1496 1496 1495 1495 1494 1494 1494 1494 1493 1492 1491 1490 1489 1488 1487 1486 1484
1490 1489 1490 1490 1490 1491 1492 1492 1492 1492 1492 1492 1492 1491 1491 1491 1491 1491 1492 1492 1492 1492 1492 1492 1492 1493 1492 1493 1495 1496 1495 1495 1497 1498 1500 1501 1501 1502 1503 1503 1503 1505 1505 1505 1506 1507 1507 1506 1506 1505 1505 1504 1504 1503 1502 1502 1500 1499 1498 1497 1497 1497 1497 1496 1496 1496 1495 1494 1491 1490 1491 1491 1490 1490 1491 1490 1489 1488 1487 1487 1486 1485 1484 1483 1481
1489 1488 1489 1489 1489 1490 1490 1490 1490 1490 1490 1490 1490 1489 1490 1490 1490 1490 1490 1490 1490 1489 1490 1490 1490 1491 1490 1491 1493 1493 1492 1493 1495 1496 1498 1499 1499 1501 1502 1501 1501 1503 1503 1503 1504 1504 1504 1504 1503 1503 1503 1502 1501 1501 1501 1500 1499 1497 1496 1495 1494 1493 1492 1491 1491 1490 1489 1489 1487 1485 1486 1486 1485 1485 1485 1485 1484 1483 1483 1482 1482 1481 1480 1479 1477
1487 1487 1487 1488 1488 1488 1488 1488 1488 1488 1488 1488 1487 1487 1488 1488 1488 1488 1488 1488 1488 1488 1488 1487 1488 1488 1488 1489 1489 1488 1489 1491 1493 1495 1496 1497 1497 1499 1499 1498 1499 1501 1501 1500 1501 1501 1501 1501 1500 1500 1500 1500 1499 1498 1498 1498 1497 1495 1494 1493 1492 1491 1489 1488 1487 1486 1485 1484 1482 1481 1481 1481 1481 1480 1480 1480 1479 1478 1477 1476 1476 1475 1475 1473 1472
1486 1486 1486 1486 1486 1486 1486 1486 1486 1486 1486 1486 1486 1486 1486 1486 1486 1486 1486 1486 1486 1486 1485 1485 1485 1486 1487 1487 1486 1485 1487 1489 1490 1492 1494 1494 1495 1496 1496 1496 1498 1499 1499 1498 1498 1498 1498 1498 1498 1498 1498 1497 1496 1494 1494 1494 1493 1492 1490 1489 1488 1487 1486 1485 1484 1483 1482 1481 1479 1479 1478 1478 1477 1476 1475 1475 1474 1474 1473 1472 1471 1472 1471 1469 1468
1484 1484 1484 1484 1484 1484 1484 1484 1484 1483 1483 1484 1484 1484 1484 1484 1484 1484 1484 1484 1484 1483 1483 1483 1483 1484 1485 1486 1484 1483 1484 1486 1487 1489 1491 1492 1493 1494 1494 1495 1496 1497 1497 1496 1496 1496 1496 1496 1496 1496 1495 1495 1493 1491 1490 1491 1489 1488 1486 1485 1484 1483 1482 1481 1480 1479 1478 1477 1476 1475 1474 1473 1472 1471 1471 1471 1470 1471 1470 1467 1467 1469 1468 1466 1464
1482 1482 1482 1482 1482 1482 1482 1481 1481 1481 1481 1481 1481 1481 1482 1482 1482 1482 1482 1482 1481 1481 1481 1481 1481 1482 1483 1482 1481 1481 1483 1484 1486 1487 1488 1489 1491 1492 1493 1495 1495 1495 1495 1495 1495 1495 1495 1494 1493 1493 1492 1491 1489 1487 1487 1486 1485 1484 1483 1481 1480 1479 1478 1478 1477 1476 1475 1474 1472 1470 1469 1468 1467 1466 1466 1465 1465 1466 1465 1462 1463 1465 1463 1461 1461
1479 1480 1479 1479 1479 1479 1479 1478 1478 1478 1478 1478 1478 1478 1479 1479 1479 1479 1479 1479 1479 1479 1479 1479 1479 1478 1479 1479 1478 1480 1482 1483 1484 1486 1486 1488 1489 1491 1492 1493 1493 1493 1494 1494 1494 1493 1493 1492 1491 1490 1489 1489 1487 1485 1484 1483 1482 1481 1480 1478 1476 1475 1474 1474 1473 1472 1471 1469 1468 1466 1465 1464 1463 1461 1461 1460 1460 1460 1459 1457 1459 1460 1458 1457 1458
1477 1477 1477 1477 1477 1476 1476 1476 1475 1475 1475 1475 1475 1475 1475 1476 1476 1476 1477 1477 1477 1477 1477 1476 1475 1475 1476 1477 1477 1479 1481 1482 1483 1484 1485 1486 1487 1488 1489 1490 1490 1491 1491 1492 1492 1491 1491 1491 1489 1487 1486 1486 1484 1482 1481 1480 1478 1477 1476 1474 1472 1471 1470 1469 1468 1467 1465 1463 1462 1461 1460 1459 1458 1457 1456 1456 1455 1455 1454 1453 1454 1454 1453 1453 1454
1474 1474 1474 1474 1474 1474 1473 1473 1473 1472 1472 1472 1471 1472 1472 1473 1473 1473 1474 1474 1475 1474 1474 1474 1473 1473 1475 1475 1476 1478 1480 1480 1481 1482 1483 1484 1485 1486 1487 1488 1489 1489 1488 1489 1489 1488 1489 1489 1486 1484 1483 1482 1481 1479 1477 1476 1474 1472 1471 1470 1468 1467 1465 1463 1462 1461 1459 1457 1456 1455 1454 1453 1453 1452 1452 1452 1451 1451 1450 1450 1449 1449 1449 1449 1449
1471 1471 1471 1471 1471 1470 1470 1470 1470 1469 1468 1468 1468 1468 1468 1469 1470 1470 1471 1471 1471 1471 1471 1472 1472 1472 1473 1474 1475 1477 1478 1478 1480 1480 1481 1482 1483 1484 1485 1485 1486 1486 1485 1485 1486 1486 1486 1487 1484 1480 1479 1479 1477 1475 1473 1471 1469 1467 1466 1465 1463 1462 1460 1458 1456 1455 1454 1452 1451 1450 1449 1449 1448 1448 1448 1447 1447 1447 1447 1446 1446 1446 1445 1445 1445
1467 1467 1468 1467 1467 1467 1467 1467 1466 1466 1465 1464 1464 1464 1465 1466 1466 1467 1467 1467 1468 1468 1468 1469 1470 1470 1471 1473 1475 1476 1476 1477 1478 1479 1480 1481 1482 1482 1483 1483 1483 1483 1482 1482 1483 1482 1482 1483 1481 1478 1476 1475 1473 1471 1469 1467 1465 1463 1461 1460 1459 1457 1456 1453 1452 1451 1449 1448 1447 1446 1445 1445 1445 1444 1444 1444 1444 1444 1444 1443 1443 1443 1442 1441 1441
1464 1464 1464 1464 1464 1464 1463 1463 1463 1463 1462 1462 1461 1461 1462 1462 1463 1464 1463 1463 1465 1466 1466 1467 1468 1469 1470 1472 1473 1474 1475 1477 1478 1479 1479 1480 1480 1480 1481 1480 1480 1480 1480 1479 1479 1479 1479 1478 1477 1475 1473 1471 1469 1467 1465 1463 1461 1459 1458 1456 1455 1454 1452 1450 1449 1448 1446 1445 1444 1443 1442 1442 1442 1441 1441 1440 1440 1440 1440 1439 1439 1439 1438 1438 1437
1460 1460 1460 1460 1460 1460 1460 1460 1460 1460 1460 1459 1459 1459 1459 1459 1459 1460 1460 1461 1463 1464 1464 1465 1466 1467 1469 1471 1472 1473 1475 1476 1477 1478 1478 1478 1479 1479 1479 1479 1479 1479 1478 1477 1477 1476 1475 1474 1472 1470 1468 1466 1463 1461 1460 1458 1457 1456 1455 1454 1453 1451 1450 1448 1447 1446 1445 1443 1442 1441 1440 1439 1439 1438 1437 1437 1436 1436 1436 1435 1435 1434 1434 1434 1433
1456 1456 1456 1456 1456 1457 1457 1457 1457 1457 1457 1457 1456 1456 1456 1456 1457 1458 1458 1459 1461 1462 1462 1463 1464 1466 1468 1470 1472 1473 1474 1476 1476 1477 1477 1477 1477 1477 1477 1477 1477 1477 1476 1475 1473 1472 1471 1469 1467 1465 1463 1461 1459 1458 1457 1456 1455 1454 1453 1452 1451 1449 1448 1447 1446 1445 1443 1441 1440 1439 1437 1437 1436 1435 1434 1434 1433 1432 1432 1431 1431 1430 1430 1430 1429
1452 1452 1452 1453 1453 1453 1453 1454 1454 1454 1454 1453 1453 1453 1454 1454 1455 1456 1456 1458 1459 1460 1461 1462 1463 1466 1468 1470 1471 1472 1474 1475 1476 1476 1476 1476 1476 1476 1476 1476 1476 1475 1474 1472 1471 1470 1468 1466 1464 1463 1461 1460 1458 1457 1455 1454 1453 1452 1451 1450 1449 1448 1447 1446 1444 1443 1441 1439 1438 1436 1435 1435 1433 1432 1432 1431 1430 1429 1429 1428 1427 1427 1427 1427 1425
1449 1449 1449 1449 1450 1450 1450 1450 1450 1451 1450 1450 1450 1451 1451 1452 1453 1453 1454 1455 1456 1457 1459 1461 1463 1466 1468 1470 1472 1473 1473 1474 1475 1475 1475 1476 1476 1476 1475 1475 1475 1474 1473 1471 1470 1468 1466 1463 1462 1461 1460 1459 1457 1456 1454 1453 1452 1451 1450 1449 1448 1446 1445 1443 1442 1440 1439 1437 1435 1434 1433 1432 1430 1429 1428 1427 1426 1426 1426 1425 1424 1424 1423 1423 1422
1445 1445 1445 1445 1446 1446 1447 1447 1447 1447 1447 1447 1448 1448 1449 1450 1451 1451 1452 1453 1455 1456 1459 1462 1463 1465 1467 1470 1472 1472 1473 1473 1474 1475 1475 1475 1475 1474 1474 1474 1473 1472 1470 1469 1467 1465 1463 1461 1461 1461 1460 1458 1456 1454 1453 1452 1450 1449 1448 1446 1445 1443 1442 1441 1439 1437 1436 1434 1432 1431 1429 1428 1426 1426 1425 1423 1422 1422 1422 1421 1420 1420 1420 1419 1418
1440 1441 1441 1442 1442 1443 1443 1444 1444 1444 1443 1444 1445 1446 1447 1448 1449 1449 1451 1453 1455 1457 1459 1462 1464 1465 1467 1469 1471 1471 1472 1472 1473 1474 1474 1474 1474 1473 1472 1471 1470 1469 1468 1466 1464 1462 1461 1461 1461 1459 1458 1456 1454 1453 1451 1450 1448 1446 1445 1444 1442 1441 1439 1438 1436 1434 1432 1430 1428 1427 1425 1423 1422 1421 1420 1419 1418 1418 1417 1417 1416 1416 1416 1415 1413
1436 1436 1437 1438 1438 1439 1440 1440 1441 1440 1440 1442 1443 1444 1445 1447 1448 1450 1453 1455 1457 1459 1461 1463 1465 1467 1468 1469 1470 1471 1471 1472 1473 1473 1473 1473 1472 1471 1470 1469 1468 1467 1466 1464 1462 1461 1461 1461 1459 1457 1456 1454 1452 1451 1449 1448 1446 1444 1442 1441 1439 1438 1436 1434 1433 1431 1429 1426 1424 1423 1421 1419 1418 1416 1415 1414 1413 1413 1412 1412 1412 1411 1411 1411 1409
1431 1432 1433 1434 1434 1435 1436 1436 1436 1436 1438 1440 1442 1443 1444 1446 1448 1451 1455 1457 1459 1461 1463 1464 1466 1467 1468 1469 1470 1471 1471 1472 1472 1472 1472 1471 1470 1469 1469 1468 1466 1465 1464 1462 1460 1460 1460 1459 1457 1455 1454 1452 1450 1449 1447 1445 1444 1442 1440 1438 1437 1435 1433 1431 1429 1427 1425 1423 1421 1419 1417 1416 1414 1412 1411 1410 1409 1408 1408 1407 1407 1407 1406 1406 1405
1426 1427 1429 1429 1430 1432 1432 1432 1433 1434 1436 1439 1441 1442 1444 1446 1447 1450 1454 1458 1460 1462 1464 1465 1466 1467 1468 1469 1470 1470 1471 1471 1472 1471 1471 1470 1469 1468 1468 1466 1465 1464 1462 1461 1461 1461 1460 1458 1456 1454 1452 1450 1449 1447 1445 1444 1442 1440 1438 1436 1434 1432 1430 1428 1426 1424 1421 1419 1417 1415 1413 1412 1410 1409 1407 1406 1405 1404 1403 1403 1402 1402 1402 1401 1401
1422 1423 1424 1425 1427 1428 1429 1429 1431 1433 1436 1438 1441 1443 1445 1446 1448 1450 1453 1457 1460 1462 1464 1465 1466 1467 1469 1469 1470 1470 1471 1471 1470 1470 1469 1469 1468 1467 1466 1465 1464 1463 1462 1461 1461 1460 1458 1456 1454 1453 1451 1449 1447 1445 1444 1442 1440 1438 1436 1433 1431 1429 1427 1425 1423 1420 1418 1415 1413 1411 1409 1408 1407 1405 1403 1402 1401 1400 1399 1398 1398 1398 1398 1397 1397
1418 1419 1420 1422 1424 1425 1426 1428 1430 1432 1435 1438 1441 1444 1447 1449 1450 1452 1454 1457 1460 1462 1464 1466 1467 1468 1469 1469 1470 1470 1470 1470 1469 1469 1469 1468 1468 1467 1465 1465 1465 1464 1463 1462 1461 1459 1457 1455 1453 1451 1450 1448 1446 1444 1442 1440 1438 1435 1433 1431 1428 1426 1424 1421 1419 1417 1414 1412 1410 1407 1406 1404 1402 1401 1400 1398 1397 1396 1395 1394 1394 1394 1393 1393 1393
1412 1414 1417 1419 1422 1423 1425 1427 1430 1432 1435 1439 1443 1446 1449 1451 1454 1456 1458 1460 1462 1463 1465 1466 1467 1468 1469 1469 1469 1469 1469 1469 1469 1469 1469 1468 1467 1467 1466 1466 1466 1465 1463 1462 1461 1458 1456 1454 1452 1450 1448 1446 1444 1442 1440 1438 1435 1433 1431 1428 1426 1423 1421 1418 1416 1413 1411 1408 1406 1403 1402 1400 1398 1397 1395 1394 1392 1391 1390 1390 1390 1389 1389 1389 1389
1408 1411 1414 1417 1419 1422 1425 1429 1432 1434 1437 1441 1445 1448 1451 1454 1456 1458 1460 1462 1463 1464 1465 1466 1467 1468 1468 1469 1469 1469 1469 1469 1469 1469 1469 1468 1467 1466 1466 1466 1466 1464 1462 1461 1459 1457 1455 1453 1451 1449 1447 1445 1443 1440 1438 1435 1433 1430 1428 1425 1423 1420 1417 1415 1412 1409 1407 1404 1402 1400 1398 1396 1394 1393 1391 1389 1388 1387 1385 1385 1384 1384 1384 1385 1385
1406 1409 1412 1415 1418 1422 1426 1431 1434 1437 1440 1444 1448 1450 1453 1455 1457 1459 1461 1462 1464 1465 1466 1466 1467 1467 1467 1468 1468 1469 1469 1469 1469 1468 1468 1467 1467 1467 1466 1466 1465 1463 1462 1460 1458 1456 1454 1452 1450 1447 1445 1443 1441 1438 1436 1433 1431 1428 1425 1422 1420 1417 1414 1411 1408 1406 1403 1401 1398 1396 1394 1392 1389 1388 1387 1385 1383 1382 1381 1380 1380 1380 1380 1380 1381
1407 1410 1414 1418 1421 1425 1429 1433 1437 1440 1443 1446 1450 1453 1455 1456 1458 1460 1462 1463 1464 1466 1466 1466 1467 1467 1467 1468 1468 1469 1469 1468 1468 1468 1468 1468 1468 1467 1466 1465 1464 1462 1460 1459 1457 1455 1453 1450 1448 1446 1444 1442 1439 1437 1434 1431 1428 1425 1422 1420 1416 1414 1411 1408 1405 1402 1399 1397 1394 1392 1390 1387 1385 1384 1382 1380 1379 1377 1376 1376 1376 1376 1376 1376 1377
1412 1416 1420 1423 1426 1430 1434 1437 1440 1443 1446 1448 1452 1454 1456 1458 1460 1461 1463 1464 1465 1466 1467 1467 1467 1468 1468 1468 1468 1469 1469 1468 1468 1469 1469 1468 1468 1467 1465 1464 1463 1461 1460 1458 1456 1454 1452 1449 1447 1445 1443 1441 1438 1435 1432 1429 1426 1423 1420 1417 1414 1411 1408 1405 1402 1399 1396 1393 1390 1388 1385 1383 1381 1380 1378 1377 1375 1374 1373 1372 1372 1372 1373 1373 1374
1420 1423 1426 1429 1432 1434 1437 1440 1443 1445 1448 1450 1453 1455 1457 1459 1461 1462 1463 1464 1465 1466 1467 1467 1467 1468 1468 1468 1468 1468 1468 1468 1469 1468 1468 1467 1467 1466 1465 1463 1462 1461 1459 1456 1454 1453 1450 1448 1446 1444 1442 1439 1437 1434 1431 1428 1424 1421 1417 1414 1411 1408 1405 1402 1399 1395 1392 1389 1386 1384 1382 1380 1378 1376 1375 1373 1372 1371 1370 1369 1369 1370 1370 1371 1372
1427 1429 1431 1434 1436 1438 1441 1443 1446 1448 1450 1453 1454 1456 1458 1460 1461 1462 1464 1465 1465 1466 1467 1467 1467 1467 1467 1467 1467 1466 1467 1467 1468 1467 1467 1466 1466 1465 1464 1463 1461 1460 1457 1455 1453 1452 1449 1447 1445 1443 1441 1438 1435 1432 1429 1426 1422 1419 1415 1412 1409 1406 1402 1399 1396 1392 1389 1387 1384 1381 1379 1377 1375 1374 1372 1371 1370 1369 1368 1368 1368 1368 1369 1369 1370
1432 1433 1435 1438 1440 1442 1444 1446 1448 1450 1452 1454 1456 1458 1459 1460 1462 1463 1464 1465 1465 1466 1467 1467 1467 1466 1466 1466 1465 1465 1466 1467 1467 1467 1466 1465 1464 1463 1463 1462 1460 1458 1456 1454 1452 1451 1448 1446 1444 1442 1440 1437 1434 1432 1428 1425 1421 1417 1414 1410 1407 1403 1400 1396 1393 1390 1387 1384 1381 1379 1377 1375 1373 1371 1370 1369 1368 1368 1367 1367 1367 1367 1368 1369 1369
1436 1437 1439 1440 1442 1444 1445 1447 1449 1451 1453 1455 1456 1458 1460 1461 1462 1463 1464 1464 1465 1466 1466 1467 1467 1466 1466 1465 1465 1465 1466 1466 1466 1465 1465 1464 1463 1462 1462 1460 1457 1455 1454 1453 1451 1450 1447 1445 1444 1441 1439 1436 1434 1430 1427 1424 1420 1417 1413 1409 1405 1402 1398 1395 1391 1388 1385 1382 1379 1377 1375 1373 1371 1370 1369 1368 1367 1367 1366 1366 1367 1367 1368 1368 1368
1439 1441 1442 1443 1445 1446 1448 1450 1451 1453 1455 1456 1457 1459 1460 1461 1461 1462 1463 1464 1464 1465 1465 1466 1466 1466 1466 1465 1465 1465 1465 1465 1465 1465 1465 1464 1463 1461 1460 1458 1456 1454 1453 1452 1450 1448 1446 1445 1443 1441 1438 1435 1433 1429 1427 1423 1419 1415 1412 1408 1405 1401 1397 1393 1390 1387 1384 1381 1378 1376 1374 1372 1370 1369 1368 1367 1366 1366 1366 1366 1366 1366 1367 1367 1367
1442 1443 1444 1446 1447 1448 1450 1452 1453 1454 1455 1457 1458 1459 1460 1460 1461 1462 1463 1464 1464 1465 1465 1465 1465 1465 1465 1464 1464 1465 1465 1465 1465 1464 1463 1462 1461 1459 1458 1457 1455 1453 1452 1451 1449 1448 1446 1444 1442 1440 1438 1435 1432 1429 1426 1422 1418 1414 1411 1408 1404 1400 1397 1393 1390 1386 1383 1380 1378 1375 1373 1371 1370 1368 1367 1366 1366 1366 1366 1366 1366 1366 1366 1366 1366
1443 1445 1446 1447 1449 1450 1452 1453 1454 1455 1456 1457 1458 1459 1460 1461 1462 1462 1463 1463 1464 1465 1465 1465 1465 1464 1464 1464 1464 1465 1465 1464 1463 1462 1462 1461 1460 1458 1457 1456 1454 1453 1452 1451 1449 1447 1446 1444 1442 1440 1437 1435 1432 1428 1425 1421 1418 1414 1411 1407 1404 1400 1397 1393 1390 1386 1383 1380 1378 1376 1373 1371 1370 1368 1367 1366 1366 1366 1366 1365 1366 1366 1366 1366 1366
1446 1447 1448 1449 1450 1452 1453 1454 1455 1456 1456 1457 1458 1459 1460 1461 1462 1462 1463 1463 1464 1464 1464 1464 1464 1464 1463 1463 1463 1463 1463 1462 1461 1461 1462 1462 1461 1458 1456 1455 1454 1453 1452 1450 1449 1447 1445 1444 1442 1440 1438 1435 1431 1428 1425 1421 1418 1414 1410 1407 1404 1401 1397 1394 1390 1386 1384 1381 1378 1376 1374 1372 1370 1369 1368 1367 1367 1366 1366 1366 1366 1366 1366 1366 1367
1448 1449 1450 1451 1452 1453 1453 1454 1455 1456 1457 1458 1459 1460 1460 1461 1462 1462 1462 1463 1463 1463 1463 1463 1463 1463 1463 1462 1462 1462 1462 1461 1461 1460 1460 1461 1460 1457 1456 1455 1454 1452 1451 1450 1449 1447 1445 1443 1442 1440 1438 1435 1432 1429 1426 1422 1419 1415 1411 1408 1405 1402 1398 1394 1391 1387 1385 1382 1380 1377 1375 1373 1372 1370 1369 1368 1368 1367 1367 1367 1367 1367 1368 1368 1369
1450 1451 1452 1453 1453 1454 1455 1455 1456 1457 1458 1459 1459 1460 1461 1461 1461 1462 1462 1462 1462 1462 1462 1462 1462 1462 1462 1462 1461 1461 1461 1461 1460 1460 1459 1459 1458 1457 1456 1455 1453 1452 1451 1450 1449 1447 1446 1443 1442 1441 1439 1436 1434 1431 1427 1424 1420 1416 1413 1409 1406 1403 1399 1395 1392 1389 1386 1384 1381 1379 1377 1375 1374 1372 1371 1370 1370 1369 1369 1369 1369 1369 1370 1370 1371
1451 1452 1453 1454 1454 1455 1456 1457 1457 1458 1459 1459 1460 1460 1460 1461 1461 1461 1461 1461 1461 1461 1461 1461 1461 1461 1461 1461 1460 1460 1460 1460 1460 1460 1459 1459 1458 1457 1456 1454 1453 1452 1452 1450 1449 1448 1446 1443 1442 1442 1440 1438 1435 1433 1429 1425 1422 1419 1415 1411 1408 1405 1401 1397 1394 1392 1389 1386 1384 1381 1379 1378 1376 1375 1373 1373 1372 1372 1372 1371 1371 1372 1372 1373 1374